This is the latest recevied weather packets stored in our database for station/object K7SKM. If no packets are shown the sender has not sent any weather packets the latest 10 day(s).
| Time | Temp. | Humidity | Pressure | Rain* | Wind** | Luminosity | Snow |
|---|---|---|---|---|---|---|---|
| 1788538020 | 12.78° C | 99% | 1018.1 hPa | 0 mm | - | 78 W/m² | - |
| 1788537715 | 12.78° C | 99% | 1018.1 hPa | 0 mm | - | 66 W/m² | - |
| 1788537410 | 12.78° C | 99% | 1018.2 hPa | 0 mm | - | 57 W/m² | - |
| 1788537109 | 12.78° C | 99% | 1018.1 hPa | 0 mm | - | 48 W/m² | - |
| 1788536807 | 12.22° C | 98% | 1018.1 hPa | 0 mm | - | 43 W/m² | - |
| 1788536502 | 12.22° C | 99% | 1017.9 hPa | 0 mm | - | 48 W/m² | - |
| 1788536197 | 12.22° C | 98% | 1017.9 hPa | 0 mm | - | 51 W/m² | - |
| 1788535893 | 12.22° C | 98% | 1018.1 hPa | 0 mm | - | 51 W/m² | - |
| 1788535589 | 12.22° C | 99% | 1017.7 hPa | 0 mm | - | 48 W/m² | - |
| 1788535284 | 12.22° C | 98% | 1017.7 hPa | 0 mm | - | 45 W/m² | - |
| 1788534979 | 12.22° C | 99% | 1017.8 hPa | 0 mm | - | 39 W/m² | - |
| 1788534678 | 12.22° C | 99% | 1017.7 hPa | 0 mm | - | 29 W/m² | - |
| 1788534374 | 12.22° C | 99% | 1017.5 hPa | 0 mm | - | 24 W/m² | - |
| 1788534069 | 12.22° C | 99% | 1017.7 hPa | 1.78 mm | - | 22 W/m² | - |
| 1788533767 | 12.22° C | 99% | 1017.6 hPa | 0 mm | - | 20 W/m² | - |
| 1788533462 | 11.67° C | 99% | 1017.4 hPa | 0 mm | - | 19 W/m² | - |
| 1788533158 | 11.67° C | 99% | 1017.5 hPa | 0 mm | - | 16 W/m² | - |
| 1788532854 | 11.67° C | 99% | 1017.3 hPa | 0 mm | - | 12 W/m² | - |
| 1788532550 | 11.67° C | 99% | 1017.5 hPa | 1.78 mm | - | 10 W/m² | - |
| 1788532246 | 11.67° C | 99% | 1017.7 hPa | 1.78 mm | - | 8 W/m² | - |
| 1788531942 | 11.67° C | 99% | 1017.4 hPa | 0 mm | - | 6 W/m² | - |
| 1788531637 | 11.67° C | 99% | 1017.2 hPa | 0 mm | - | 5 W/m² | - |
| 1788531332 | 11.67° C | 99% | 1017.3 hPa | 1.78 mm | - | 3 W/m² | - |
| 1788531028 | 11.67° C | 99% | 1017.3 hPa | 1.78 mm | - | 2 W/m² | - |
| 1788530728 | 11.67° C | 99% | 1017.2 hPa | 0 mm | - | 1 W/m² | - |
* Rain latest hour (hover to see other rain measurements)
** Current wind speed in m/s (hover to see current wind gust speed)